FW6739 Weather Reports


time (UTC)temp
C
wind
direction
speed
KPH
gust
KPH
rain 1hr
cm
rain 24hr
cm
rain mn
cm
humidity
%
barometer
mb
20260507163632 28 0 14.5 38.6 0.00 0.00 0.00 75 999.7
20260507163122 28 338 12.9 38.6 0.00 0.00 0.00 74 999.7
20260507162612 28 0 14.5 32.2 0.00 0.00 0.00 73 999.6
20260507162102 28 293 17.7 27.4 0.00 0.00 0.00 73 999.4
20260507161552 28 0 16.1 27.4 0.00 0.00 0.00 74 999.8
20260507161043 28 23 8.0 35.4 0.00 0.00 0.00 74 999.8
20260507160022 28 23 14.5 22.5 0.00 0.00 0.00 75 999.9
20260507155512 28 315 11.3 25.7 0.00 0.00 0.00 76 1000.3
20260507155001 27 338 12.9 25.7 0.00 0.00 0.00 77 1000.5
20260507154451 27 23 11.3 22.5 0.00 0.00 0.00 76 1000.5
20260507153941 28 23 6.4 20.9 0.00 0.00 0.00 75 1001.0
20260507153431 28 315 8.0 24.1 0.00 0.00 0.00 72 1001.0
20260507152921 28 45 9.7 24.1 0.00 0.00 0.00 74 1001.2
20260507152410 28 45 8.0 17.7 0.00 0.00 0.00 72 1001.0
20260507151901 28 23 8.0 17.7 0.00 0.00 0.00 74 1001.0
20260507151351 28 338 6.4 17.7 0.00 0.00 0.00 75 1001.5
20260507150840 27 45 9.7 17.7 0.00 0.00 0.00 76 1001.4
20260507150331 27 23 6.4 17.7 0.00 0.00 0.00 75 1001.2
20260507145821 27 338 6.4 17.7 0.00 0.00 0.00 75 1001.5
20260507145310 27 0 8.0 17.7 0.00 0.00 0.00 76 1001.5
20260507144800 27 23 11.3 17.7 0.00 0.00 0.00 76 1001.3
20260507144250 27 338 6.4 17.7 0.00 0.00 0.00 77 1001.3
20260507143740 27 45 6.4 14.5 0.00 0.00 0.00 77 1001.2
20260507143230 26 0 6.4 14.5 0.00 0.00 0.00 78 1001.3
20260507142719 26 23 6.4 17.7 0.00 0.00 0.00 78 1001.5
20260507142210 26 0 6.4 17.7 0.00 0.00 0.00 78 1001.5
20260507141659 26 23 6.4 17.7 0.00 0.00 0.00 78 1001.4
20260507141149 26 23 11.3 17.7 0.00 0.00 0.00 77 1001.5
20260507140129 27 338 4.8 22.5 0.00 0.00 0.00 77 1001.6
20260507135624 26 45 11.3 20.9 0.00 0.00 0.00 77 1001.6
20260507134559 27 45 9.7 22.5 0.00 0.00 0.00 76 1001.6
20260507134051 26 45 12.9 22.5 0.00 0.00 0.00 77 1002.0
20260507133539 26 68 11.3 22.5 0.00 0.00 0.00 77 1001.8
20260507133028 26 23 11.3 24.1 0.00 0.00 0.00 77 1001.9
20260507132519 26 45 12.9 24.1 0.00 0.00 0.00 77 1002.1
20260507132008 26 45 12.9 20.9 0.00 0.00 0.00 78 1001.8
20260507131458 26 45 9.7 22.5 0.00 0.00 0.00 78 1001.9
20260507130948 26 45 11.3 22.5 0.00 0.00 0.00 78 1001.8
20260507130518 26 23 14.5 25.7 0.00 0.00 0.00 77 1002.1
20260507125928 26 45 11.3 25.7 0.00 0.00 0.00 77 1001.9
20260507125417 26 68 12.9 24.1 0.00 0.00 0.00 77 1001.9
20260507124907 26 45 17.7 27.4 0.00 0.00 0.00 76 1002.2
20260507124357 26 45 14.5 27.4 0.00 0.00 0.00 76 1002.0
20260507123847 26 23 16.1 29.0 0.00 0.00 0.00 76 1002.1
20260507123337 26 45 12.9 29.0 0.00 0.00 0.00 75 1002.2
20260507122827 27 45 12.9 24.1 0.00 0.00 0.00 75 1002.4
20260507122317 27 45 9.7 20.9 0.00 0.00 0.00 75 1002.4
20260507121257 26 45 8.0 22.5 0.00 0.00 0.00 76 1002.4
20260507120747 26 45 9.7 22.5 0.00 0.00 0.00 77 1002.5
20260507120237 26 45 6.4 17.7 0.00 0.00 0.00 77 1002.7
20260507115726 26 23 8.0 17.7 0.00 0.00 0.00 77 1002.5
20260507115216 26 45 11.3 20.9 0.00 0.00 0.00 77 1002.5
20260507114706 26 45 8.0 25.7 0.00 0.00 0.00 77 1002.4
20260507114156 26 23 9.7 25.7 0.00 0.00 0.00 76 1002.4
20260507113136 26 23 9.7 24.1 0.00 0.00 0.00 77 1002.3
20260507112626 26 45 16.1 22.5 0.00 0.00 0.00 77 1002.2
20260507112116 26 23 11.3 20.9 0.00 0.00 0.00 77 1002.1
20260507111606 26 0 11.3 25.7 0.00 0.00 0.00 76 1002.1
20260507110552 26 23 8.0 17.7 0.00 0.00 0.00 77 1002.4
20260507110035 26 0 12.9 20.9 0.00 0.00 0.00 77 1002.1
20260507105015 26 45 9.7 17.7 0.00 0.00 0.00 77 1002.6
20260507104512 26 45 12.9 24.1 0.00 0.00 0.00 77 1002.3
20260507103954 26 23 6.4 24.1 0.00 0.00 0.00 77 1002.4
20260507103445 26 23 6.4 17.7 0.00 0.00 0.00 77 1002.4
20260507102937 26 23 6.4 17.7 0.00 0.00 0.00 77 1002.2
20260507101914 26 45 6.4 17.7 0.00 0.00 0.00 77 1001.9
20260507101403 26 45 8.0 20.9 0.00 0.00 0.00 77 1001.7
20260507100854 26 0 9.7 20.9 0.00 0.00 0.00 77 1001.8
20260507095834 26 23 12.9 22.5 0.00 0.00 0.00 76 1001.7
20260507095324 26 0 8.0 22.5 0.00 0.00 0.00 76 1001.5
20260507094813 26 68 8.0 24.1 0.00 0.00 0.00 76 1001.6
20260507094303 26 45 12.9 29.0 0.00 0.00 0.00 76 1001.4
20260507093754 26 23 14.5 32.2 0.00 0.00 0.00 76 1001.4
20260507093243 26 23 14.5 32.2 0.00 0.00 0.00 76 1001.3
20260507092733 26 23 9.7 32.2 0.00 0.00 0.00 77 1000.8
20260507092223 26 45 6.4 32.2 0.00 0.00 0.00 76 1000.9
20260507091713 26 68 12.9 27.4 0.00 0.00 0.00 76 1000.9
20260507091202 26 23 14.5 27.4 0.00 0.00 0.00 76 1000.6
20260507090653 26 45 16.1 24.1 0.00 0.00 0.00 76 1000.6
20260507090142 26 23 12.9 35.4 0.00 0.00 0.00 76 1000.8
20260507085632 26 23 16.1 35.4 0.00 0.00 0.00 76 1000.8
20260507084613 26 45 12.9 33.8 0.00 0.00 0.00 76 1000.6
20260507084102 26 23 16.1 33.8 0.00 0.00 0.00 76 1000.7
20260507083551 26 23 11.3 32.2 0.00 0.00 0.00 76 1000.7
20260507083043 26 45 12.9 24.1 0.00 0.00 0.00 76 1000.9
20260507082532 26 23 12.9 24.1 0.00 0.00 0.00 77 1001.0
20260507082022 26 0 12.9 25.7 0.00 0.00 0.00 77 1001.2
20260507081513 26 23 14.5 25.7 0.00 0.00 0.00 78 1001.2
20260507081002 26 45 11.3 22.5 0.00 0.00 0.00 78 1001.1
20260507080451 26 45 11.3 29.0 0.00 0.00 0.00 78 1001.2
20260507075941 26 68 16.1 29.0 0.00 0.00 0.00 78 1001.3
20260507075430 26 45 14.5 22.5 0.00 0.00 0.00 80 1001.5
20260507074921 26 0 9.7 17.7 0.00 0.00 0.00 80 1001.4
20260507074410 26 23 8.0 17.7 0.00 0.00 0.00 81 1001.5
20260507073901 26 45 9.7 17.7 0.00 0.00 0.00 81 1001.5
20260507073351 25 45 6.4 17.7 0.00 0.00 0.00 81 1001.9
20260507072840 25 0 11.3 17.7 0.00 0.00 0.00 81 1001.6
20260507072330 25 45 9.7 17.7 0.00 0.00 0.00 81 1001.8
20260507071820 25 45 6.4 17.7 0.00 0.00 0.00 82 1001.8
20260507071311 25 45 8.0 17.7 0.00 0.00 0.00 82 1001.6
20260507070800 25 45 11.3 14.5 0.00 0.00 0.00 82 1002.0
20260507070250 25 45 6.4 12.9 0.00 0.00 0.00 82 1001.9
20260507065740 25 45 6.4 17.7 0.00 0.00 0.00 82 1002.0
20260507065229 25 45 6.4 17.7 0.00 0.00 0.00 82 1002.1
20260507064719 25 45 6.4 20.9 0.00 0.00 0.00 82 1002.0
20260507064210 25 23 6.4 20.9 0.00 0.00 0.00 82 1001.9
20260507063659 25 90 12.9 20.9 0.00 0.00 0.00 82 1002.0
20260507063149 26 45 11.3 20.9 0.00 0.00 0.00 81 1002.2
20260507062639 26 45 9.7 17.7 0.00 0.00 0.00 81 1001.9
20260507062129 26 0 11.3 24.1 0.00 0.00 0.00 81 1002.0
20260507061619 26 45 11.3 25.7 0.00 0.00 0.00 81 1002.0
20260507061109 26 23 12.9 25.7 0.00 0.00 0.00 81 1002.2
20260507060048 26 45 9.7 22.5 0.00 0.00 0.00 81 1002.4
20260507055538 26 45 12.9 24.1 0.00 0.00 0.00 81 1002.5
20260507055029 26 68 14.5 24.1 0.00 0.00 0.00 81 1002.5
20260507054518 26 45 11.3 20.9 0.00 0.00 0.00 81 1002.8
20260507054008 26 45 11.3 17.7 0.00 0.00 0.00 81 1002.7
20260507053458 26 45 6.4 17.7 0.00 0.00 0.00 81 1002.7
20260507052948 26 23 12.9 20.9 0.00 0.00 0.00 81 1002.9
20260507052438 26 45 12.9 20.9 0.00 0.00 0.00 80 1002.9
20260507051927 26 45 12.9 20.9 0.00 0.00 0.00 80 1002.8
20260507051417 26 68 11.3 17.7 0.00 0.00 0.00 81 1002.9
20260507050907 26 23 8.0 17.7 0.00 0.00 0.00 81 1003.0
20260507050354 26 45 12.9 0.0 0.00 0.00 0.00 81 1003.2
20260507050159 26 45 12.9 0.0 0.00 0.00 0.00 81 1003.3
20260507045028 26 68 9.7 22.5 0.00 0.00 0.00 81 1003.3
20260507042947 26 68 9.7 24.1 0.00 0.00 0.00 81 1003.4
20260507041927 26 45 11.3 25.7 0.00 0.00 0.00 81 1003.5
20260507041417 26 23 16.1 25.7 0.00 0.00 0.00 81 1003.5
20260507040907 26 23 17.7 25.7 0.00 0.00 0.00 81 1003.6
20260507035846 26 45 12.9 22.5 0.00 0.00 0.00 81 1003.6
20260507035336 26 45 14.5 24.1 0.00 0.00 0.00 81 1003.5
20260507034316 26 45 9.7 22.5 0.00 0.00 0.00 81 1003.7
20260507033806 26 68 8.0 22.5 0.00 0.00 0.00 80 1003.7
20260507033256 26 45 11.3 22.5 0.00 0.00 0.00 80 1003.8
20260507032745 26 45 12.9 24.1 0.00 0.00 0.00 80 1003.9
20260507032235 26 68 16.1 24.1 0.00 0.00 0.00 80 1004.0
20260507031216 26 45 9.7 20.9 0.00 0.00 0.00 80 1003.9
20260507030706 26 23 9.7 22.5 0.00 0.00 0.00 80 1003.8
20260507030155 26 68 9.7 22.5 0.00 0.00 0.00 80 1004.0
20260507025135 26 45 11.3 17.7 0.00 0.00 0.00 80 1004.1
20260507024625 26 23 9.7 17.7 0.00 0.00 0.00 80 1004.2
20260507023605 26 45 12.9 20.9 0.00 0.00 0.00 80 1003.9
20260507023055 26 68 11.3 24.1 0.00 0.00 0.00 80 1004.2
20260507022544 26 45 6.4 24.1 0.00 0.00 0.00 80 1004.3
20260507022034 26 45 12.9 24.1 0.00 0.00 0.00 80 1004.2
20260507021524 26 45 12.9 22.5 0.00 0.00 0.00 80 1004.4
20260507021014 26 45 12.9 22.5 0.00 0.00 0.00 80 1004.3
20260507015445 26 68 12.9 22.5 0.00 0.00 0.00 80 1004.5
20260507014934 26 23 12.9 22.5 0.00 0.00 0.00 79 1004.4
20260507014424 26 23 12.9 20.9 0.00 0.00 0.00 79 1004.4
20260507013914 26 45 14.5 20.9 0.00 0.00 0.00 79 1004.6
20260507013404 26 68 12.9 20.9 0.00 0.00 0.00 79 1004.4
20260507012853 26 68 12.9 22.5 0.00 0.00 0.00 80 1004.4
20260507012343 26 68 8.0 22.5 0.00 0.00 0.00 80 1004.5
20260507011833 26 68 12.9 17.7 0.00 0.00 0.00 79 1004.7
20260507011322 26 45 11.3 20.9 0.00 0.00 0.00 79 1004.6
20260507010815 26 45 11.3 22.5 0.00 0.00 0.00 79 1004.6
20260507010303 26 45 8.0 22.5 0.00 0.00 0.00 79 1004.6
20260507005753 27 45 14.5 20.9 0.00 0.00 0.00 79 1004.7
20260507005242 27 45 12.9 22.5 0.00 0.00 0.00 79 1004.8
20260507004733 27 45 9.7 24.1 0.00 0.00 0.00 79 1004.6
20260507004223 27 45 8.0 24.1 0.00 0.00 0.00 79 1004.7
20260507003712 26 23 11.3 20.9 0.00 0.00 0.00 79 1004.6
20260507002651 26 45 12.9 24.1 0.00 0.00 0.00 80 1004.7
20260507002141 26 23 8.0 24.1 0.00 0.00 0.00 80 1004.5
20260507001632 26 45 11.3 22.5 0.00 0.00 0.00 80 1004.4
20260507001121 26 68 12.9 24.1 0.00 0.00 0.00 80 1004.8
20260507000612 26 68 12.9 24.1 0.00 0.00 0.00 81 1004.7
20260506235552 26 45 16.1 24.1 0.00 0.00 0.00 80 1004.6
20260506235041 26 45 6.4 22.5 0.00 0.00 0.00 81 1004.8
20260506234531 26 23 12.9 22.5 0.00 0.00 0.00 80 1004.6
20260506234021 26 68 12.9 25.7 0.00 0.00 0.00 80 1004.4
20260506233511 27 45 12.9 27.4 0.00 0.00 0.00 79 1004.5
20260506233001 27 23 9.7 27.4 0.00 0.00 0.00 79 1004.5
20260506232451 27 68 16.1 25.7 0.00 0.00 0.00 79 1004.6
20260506231941 27 45 12.9 24.1 0.00 0.00 0.00 79 1004.8
20260506231430 27 23 16.1 25.7 0.00 0.00 0.00 79 1004.9
20260506230920 27 23 11.3 25.7 0.00 0.00 0.00 79 1005.1
20260506225900 27 45 11.3 22.5 0.00 0.00 0.00 79 1005.3
20260506224839 27 23 12.9 22.5 0.00 0.00 0.00 79 1005.1
20260506224330 27 23 8.0 22.5 0.00 0.00 0.00 78 1005.3
20260506223820 27 45 9.7 22.5 0.00 0.00 0.00 77 1005.2
20260506223310 27 45 14.5 22.5 0.00 0.00 0.00 77 1005.3
20260506222800 28 68 14.5 22.5 0.00 0.00 0.00 76 1005.0
20260506222249 27 45 8.0 20.9 0.00 0.00 0.00 76 1005.2
20260506221229 28 68 6.4 20.9 0.00 0.00 0.00 75 1005.2
20260506220719 28 45 12.9 20.9 0.00 0.00 0.00 75 1005.2
20260506220209 28 45 8.0 17.7 0.00 0.00 0.00 75 1005.1
20260506215659 28 23 11.3 17.7 0.00 0.00 0.00 75 1005.1
20260506214638 28 45 8.0 22.5 0.00 0.00 0.00 76 1005.4
20260506214128 28 45 8.0 25.7 0.00 0.00 0.00 75 1005.2
20260506213108 28 45 9.7 20.9 0.00 0.00 0.00 75 1005.1
20260506212558 28 45 8.0 17.7 0.00 0.00 0.00 75 1005.3
20260506212047 28 45 8.0 22.5 0.00 0.00 0.00 74 1005.4
20260506211537 28 68 12.9 22.5 0.00 0.00 0.00 74 1005.1
20260506211028 28 68 12.9 22.5 0.00 0.00 0.00 74 1005.2
20260506210008 28 68 12.9 24.1 0.00 0.00 0.00 74 1005.4
20260506205457 28 68 8.0 22.5 0.00 0.00 0.00 74 1005.6
20260506204947 28 45 12.9 22.5 0.00 0.00 0.00 73 1005.7
20260506204437 28 45 6.4 17.7 0.00 0.00 0.00 73 1005.7
20260506203927 28 68 9.7 20.9 0.00 0.00 0.00 73 1005.7
20260506203417 28 45 12.9 20.9 0.00 0.00 0.00 73 1005.8
20260506202907 28 68 6.4 25.7 0.00 0.00 0.00 73 1005.8
20260506201848 28 23 14.5 24.1 0.00 0.00 0.00 72 1005.6
20260506201336 29 68 6.4 20.9 0.00 0.00 0.00 73 1005.7
20260506200826 29 23 12.9 20.9 0.00 0.00 0.00 72 1005.6
20260506195807 29 45 12.9 22.5 0.00 0.00 0.00 73 1005.7
20260506195257 29 45 11.3 22.5 0.00 0.00 0.00 73 1006.0
20260506194745 29 45 6.4 17.7 0.00 0.00 0.00 72 1005.8
20260506194236 29 68 11.3 20.9 0.00 0.00 0.00 72 1005.8
20260506193215 29 45 11.3 25.7 0.00 0.00 0.00 72 1005.8
20260506192705 30 68 14.5 25.7 0.00 0.00 0.00 71 1005.9
20260506192155 30 68 16.1 24.1 0.00 0.00 0.00 70 1005.9
20260506191135 30 0 11.3 24.1 0.00 0.00 0.00 69 1005.8
20260506190625 30 45 9.7 25.7 0.00 0.00 0.00 69 1005.8
20260506190114 30 23 9.7 25.7 0.00 0.00 0.00 67 1006.0
20260506185604 30 23 6.4 25.7 0.00 0.00 0.00 67 1005.8
20260506185054 30 45 6.4 22.5 0.00 0.00 0.00 67 1005.6
20260506184544 30 68 11.3 25.7 0.00 0.00 0.00 67 1006.0
20260506184035 30 68 12.9 25.7 0.00 0.00 0.00 68 1006.1
20260506183524 30 45 14.5 25.7 0.00 0.00 0.00 67 1006.3
20260506181954 30 45 16.1 22.5 0.00 0.00 0.00 65 1006.5
20260506181443 31 45 9.7 25.7 0.00 0.00 0.00 64 1006.6
20260506180934 31 45 14.5 25.7 0.00 0.00 0.00 63 1006.5
20260506180423 31 23 17.7 24.1 0.00 0.00 0.00 63 1006.6
20260506175913 31 23 12.9 20.9 0.00 0.00 0.00 64 1006.8
20260506175404 31 45 8.0 25.7 0.00 0.00 0.00 63 1006.9
20260506174343 31 23 12.9 35.4 0.00 0.00 0.00 63 1007.0
20260506173832 31 23 12.9 25.7 0.00 0.00 0.00 64 1007.1
20260506173323 31 0 12.9 25.7 0.00 0.00 0.00 64 1007.4
20260506172813 31 23 12.9 22.5 0.00 0.00 0.00 65 1007.3
20260506172306 31 0 9.7 22.5 0.00 0.00 0.00 64 1007.4
20260506171752 31 315 9.7 20.9 0.00 0.00 0.00 62 1007.3
20260506171242 32 0 6.4 32.2 0.00 0.00 0.00 63 1007.6
20260506170732 31 23 9.7 32.2 0.00 0.00 0.00 62 1007.7
20260506170222 31 0 12.9 29.0 0.00 0.00 0.00 63 1007.6
20260506165712 31 45 12.9 29.0 0.00 0.00 0.00 63 1007.7
20260506165202 31 23 16.1 25.7 0.00 0.00 0.00 62 1008.0
20260506164652 31 45 14.5 29.0 0.00 0.00 0.00 63 1007.9